Date,Time,Wetness (Wet Dry or Ice),Wind Speed (m/s),Temperature (C),Humidity (%),Pressure (mb),Radiation (W/m^2)
2019-10-23,03:30:00,DRY,4.40,8.23,2.0,771.00,1.4
2019-10-23,03:35:00,DRY,3.90,8.30,2.0,771.00,0.6
2019-10-23,03:40:00,DRY,4.83,8.17,3.0,771.00,1.3
2019-10-23,03:45:00,DRY,3.85,8.30,2.5,771.00,1.1
2019-10-23,03:50:00,DRY,4.63,8.20,3.0,771.00,1.5
2019-10-23,03:55:00,DRY,4.20,7.90,3.5,771.00,1.4
2019-10-23,04:00:00,DRY,4.97,7.47,5.7,771.00,1.1
2019-10-23,04:05:00,DRY,4.45,7.50,5.0,771.00,1.3
2019-10-23,04:10:00,DRY,4.07,7.23,6.7,771.00,1.1
2019-10-23,04:15:00,DRY,3.60,8.00,4.0,771.00,1.2
2019-10-23,04:20:00,DRY,3.57,7.70,4.7,771.00,1.0
2019-10-23,04:25:00,DRY,2.80,7.60,4.5,771.00,0.7
2019-10-23,04:30:00,DRY,4.80,7.27,5.0,771.00,0.9
2019-10-23,04:35:00,DRY,5.05,7.45,4.0,771.00,1.2
2019-10-23,04:40:00,DRY,4.37,7.43,4.3,771.00,1.0
2019-10-23,04:45:00,DRY,4.40,7.35,7.5,771.00,0.9
2019-10-23,04:50:00,DRY,5.30,7.00,9.0,771.00,1.9
2019-10-23,04:55:00,DRY,5.05,7.20,4.0,771.00,1.9
2019-10-23,05:00:00,DRY,4.57,7.40,4.7,771.00,1.3
2019-10-23,05:05:00,DRY,5.20,7.65,3.0,771.00,1.4
2019-10-23,05:10:00,DRY,4.30,7.93,3.0,771.00,1.3
2019-10-23,05:15:00,DRY,4.90,8.15,3.0,771.00,1.1
2019-10-23,05:20:00,DRY,4.50,8.70,3.0,771.00,1.4
2019-10-23,05:25:00,DRY,4.60,8.80,3.5,771.00,1.6
2019-10-23,05:30:00,DRY,4.07,8.60,4.7,771.00,1.1
2019-10-23,05:35:00,DRY,4.30,8.35,5.0,771.00,1.2
2019-10-23,05:40:00,DRY,3.90,8.27,3.7,771.00,1.2
2019-10-23,05:45:00,DRY,3.45,8.45,3.0,771.00,0.7
2019-10-23,05:50:00,DRY,3.47,8.90,2.7,771.00,1.2
2019-10-23,05:55:00,DRY,3.80,9.05,4.0,771.00,1.2
2019-10-23,06:00:00,DRY,3.60,8.53,5.7,771.00,1.1
2019-10-23,06:05:00,DRY,3.35,8.50,6.5,771.00,1.4
2019-10-23,06:10:00,DRY,3.47,8.43,7.3,771.00,1.0
2019-10-23,06:15:00,DRY,3.75,9.30,4.0,771.00,1.3
2019-10-23,06:20:00,DRY,4.03,8.50,7.7,771.00,1.2
2019-10-23,06:25:00,DRY,3.90,7.55,8.5,771.00,1.3
2019-10-23,06:30:00,DRY,4.37,7.77,6.3,771.00,1.2
2019-10-23,06:35:00,DRY,4.60,7.90,6.0,771.00,1.4
2019-10-23,06:40:00,DRY,4.17,7.93,4.7,771.00,1.4
2019-10-23,06:45:00,DRY,3.95,8.70,4.0,771.00,1.2
2019-10-23,06:50:00,DRY,4.00,8.43,5.0,771.00,1.3
2019-10-23,06:55:00,DRY,4.45,8.00,4.5,771.00,1.9
2019-10-23,07:00:00,DRY,3.77,8.17,3.3,771.00,1.9
2019-10-23,07:05:00,DRY,3.70,8.50,2.5,771.00,2.9
2019-10-23,07:10:00,DRY,3.90,8.53,2.7,771.00,4.8
2019-10-23,07:15:00,DRY,4.00,8.40,3.0,771.00,7.0
2019-10-23,07:20:00,DRY,4.25,8.45,3.0,771.00,9.7
2019-10-23,07:25:00,DRY,4.05,8.30,3.0,771.00,13.4
2019-10-23,07:30:00,DRY,4.37,8.50,2.7,771.00,16.7
2019-10-23,07:35:00,DRY,4.40,8.50,2.5,771.00,20.5
2019-10-23,07:40:00,DRY,4.63,8.53,3.0,771.00,23.1
2019-10-23,07:45:00,DRY,3.75,8.30,3.0,771.00,25.8
2019-10-23,07:50:00,DRY,3.93,8.63,3.0,771.00,28.3
2019-10-23,07:55:00,DRY,3.95,8.65,3.5,771.00,30.6
2019-10-23,08:00:00,DRY,4.27,8.87,2.3,771.00,40.6
2019-10-23,08:05:00,DRY,3.35,8.95,2.5,771.00,175.8
2019-10-23,08:10:00,DRY,3.70,9.47,2.7,771.00,206.5
2019-10-23,08:15:00,DRY,4.20,9.85,2.5,771.00,228.1
2019-10-23,08:20:00,DRY,3.37,9.97,2.7,771.00,249.7
2019-10-23,08:25:00,DRY,4.00,10.00,3.0,771.00,271.5
2019-10-23,08:30:00,DRY,3.67,10.10,3.3,771.00,294.3
2019-10-23,08:35:00,DRY,4.25,10.10,3.0,771.00,315.6
2019-10-23,08:40:00,DRY,2.80,10.50,3.3,771.00,337.5
2019-10-23,08:45:00,DRY,3.90,10.65,4.0,771.00,358.7
2019-10-23,08:50:00,DRY,3.90,10.67,4.0,771.33,378.3
2019-10-23,08:55:00,DRY,3.55,10.80,4.0,772.00,399.6
2019-10-23,09:00:00,DRY,3.73,10.73,5.3,771.67,419.9
2019-10-23,09:05:00,DRY,3.90,10.70,6.5,771.00,440.5
2019-10-23,09:10:00,DRY,3.63,10.77,5.7,771.67,460.5
2019-10-23,09:15:00,DRY,3.85,10.90,6.0,772.00,479.4
2019-10-23,09:20:00,DRY,3.00,11.17,6.0,772.00,499.9
2019-10-23,09:25:00,DRY,3.45,11.25,6.0,772.00,518.0
2019-10-23,09:30:00,DRY,3.30,11.77,4.0,772.00,537.1
2019-10-23,09:35:00,DRY,3.95,12.05,4.5,772.00,554.4
2019-10-23,09:40:00,DRY,3.17,12.00,4.0,772.00,572.1
2019-10-23,09:45:00,DRY,3.75,12.15,2.5,772.00,590.5
2019-10-23,09:50:00,DRY,3.60,12.07,3.7,772.00,607.4
2019-10-23,09:55:00,DRY,3.60,12.10,4.5,772.00,624.0
2019-10-23,10:00:00,DRY,3.63,12.33,4.0,772.00,641.0
2019-10-23,10:05:00,DRY,2.85,12.45,3.0,772.00,655.7
2019-10-23,10:10:00,DRY,2.77,12.63,4.3,772.00,671.1
2019-10-23,10:15:00,DRY,2.45,12.70,6.5,772.00,687.2
2019-10-23,10:20:00,DRY,2.70,12.93,4.3,772.00,702.3
2019-10-23,10:25:00,DRY,3.30,13.00,5.0,772.00,715.0
2019-10-23,10:30:00,DRY,2.27,12.93,6.3,772.00,729.4
2019-10-23,10:35:00,DRY,2.55,12.70,7.0,772.00,742.8
2019-10-23,10:40:00,DRY,2.33,13.37,10.7,772.00,757.8
2019-10-23,10:45:00,DRY,1.40,13.50,11.5,772.00,770.0
2019-10-23,10:50:00,DRY,2.00,13.40,15.7,772.00,780.9
2019-10-23,10:55:00,DRY,2.30,12.90,12.0,772.00,793.0
2019-10-23,11:00:00,DRY,1.80,12.90,10.7,772.00,805.3
2019-10-23,11:05:00,DRY,1.60,13.15,14.0,772.00,815.0
2019-10-23,11:10:00,DRY,0.97,13.50,10.3,772.00,825.8
2019-10-23,11:15:00,DRY,1.10,14.20,14.0,772.00,835.2
2019-10-23,11:20:00,DRY,1.30,13.97,12.0,772.00,845.8
2019-10-23,11:25:00,DRY,0.90,13.80,12.5,772.00,853.7
2019-10-23,11:30:00,DRY,1.97,13.43,16.3,772.00,864.5
2019-10-23,11:35:00,DRY,1.80,13.85,13.5,772.00,871.1
2019-10-23,11:40:00,DRY,1.93,13.50,19.0,772.00,879.7
2019-10-23,11:45:00,DRY,2.00,13.40,13.5,772.00,885.2
2019-10-23,11:50:00,DRY,2.27,13.30,17.7,772.00,892.1
2019-10-23,11:55:00,DRY,2.25,13.75,16.5,772.00,899.4
2019-10-23,12:00:00,DRY,2.17,13.87,18.7,772.00,904.2
2019-10-23,12:05:00,DRY,1.40,13.80,25.5,772.00,910.7
2019-10-23,12:10:00,DRY,2.13,13.50,20.3,772.00,914.7
2019-10-23,12:15:00,DRY,1.95,13.65,20.0,771.50,919.5
2019-10-23,12:20:00,DRY,1.93,13.43,25.3,771.67,920.8
2019-10-23,12:25:00,DRY,2.25,13.15,20.5,771.50,923.9
2019-10-23,12:30:00,DRY,1.83,13.13,23.3,771.33,926.5
2019-10-23,12:35:00,DRY,2.20,12.85,20.5,771.00,927.9
2019-10-23,12:40:00,DRY,2.07,12.80,25.0,771.00,929.4
2019-10-23,12:45:00,DRY,2.15,12.55,23.5,771.00,931.5
2019-10-23,12:50:00,DRY,1.47,13.20,15.7,771.00,930.8
2019-10-23,12:55:00,DRY,1.45,13.15,34.5,771.50,932.1
2019-10-23,13:00:00,DRY,2.13,12.87,24.0,771.00,931.1
2019-10-23,13:05:00,DRY,2.50,12.95,22.5,771.00,929.8
2019-10-23,13:10:00,DRY,1.17,13.17,15.3,771.00,928.4
2019-10-23,13:15:00,DRY,1.25,13.10,26.5,771.00,926.0
2019-10-23,13:20:00,DRY,1.63,13.33,21.3,771.00,924.6
2019-10-23,13:25:00,DRY,3.30,13.15,26.0,771.00,919.7
2019-10-23,13:30:00,DRY,1.00,12.90,18.0,771.00,919.0
2019-10-23,13:35:00,DRY,2.30,12.50,21.0,771.00,911.8
2019-10-23,13:40:00,DRY,2.67,12.80,24.3,771.00,907.7
2019-10-23,13:45:00,DRY,3.80,12.95,22.0,771.00,901.0
2019-10-23,13:50:00,DRY,3.40,13.10,18.7,771.00,896.8
2019-10-23,13:55:00,DRY,2.25,12.45,23.0,771.00,889.7
2019-10-23,14:00:00,DRY,2.70,12.90,17.3,771.00,884.1
2019-10-23,14:05:00,DRY,2.20,12.70,38.5,771.00,878.5
2019-10-23,14:10:00,DRY,2.73,12.53,23.0,771.00,869.4
2019-10-23,14:15:00,DRY,3.00,12.85,24.5,771.00,863.2
2019-10-23,14:20:00,DRY,2.63,12.10,26.0,771.00,853.8
2019-10-23,14:25:00,DRY,1.60,12.90,20.0,771.00,845.6
2019-10-23,14:30:00,DRY,1.90,12.73,25.3,771.00,836.9
2019-10-23,14:35:00,DRY,2.75,12.60,29.5,771.00,827.2
2019-10-23,14:40:00,DRY,2.20,12.00,30.7,771.00,817.6
2019-10-23,14:45:00,DRY,1.95,11.80,29.5,771.00,805.5
2019-10-23,14:50:00,DRY,2.90,11.93,20.3,771.00,795.5
2019-10-23,14:55:00,DRY,3.20,11.85,20.0,771.00,783.2
2019-10-23,15:00:00,DRY,1.83,12.33,22.3,771.00,770.6
2019-10-23,15:05:00,DRY,2.05,12.65,19.0,771.00,758.2
2019-10-23,15:10:00,DRY,1.43,13.17,23.0,771.00,745.6
2019-10-23,15:15:00,DRY,2.35,12.95,25.5,771.00,733.2
2019-10-23,15:20:00,DRY,1.37,12.03,32.3,771.00,718.8
2019-10-23,15:25:00,DRY,2.65,11.60,28.0,771.00,704.3
2019-10-23,15:30:00,DRY,3.20,12.27,14.7,771.00,689.1
2019-10-23,15:35:00,DRY,1.75,12.60,17.0,771.00,672.1
2019-10-23,15:40:00,DRY,2.03,12.60,15.3,771.00,658.1
2019-10-23,15:45:00,DRY,1.90,12.80,14.5,771.00,641.3
2019-10-23,15:50:00,DRY,2.47,12.23,23.3,771.00,625.3
2019-10-23,15:55:00,DRY,2.40,11.40,37.0,771.00,607.8
2019-10-23,16:00:00,DRY,2.57,11.13,22.3,771.00,591.2
2019-10-23,16:05:00,DRY,1.70,11.50,19.0,771.00,572.5
2019-10-23,16:10:00,DRY,2.03,11.53,20.7,771.00,553.7
2019-10-23,16:15:00,DRY,1.95,11.50,19.0,771.00,536.3
2019-10-23,16:20:00,DRY,2.93,11.50,16.3,771.00,517.6
2019-10-23,16:25:00,DRY,3.05,11.20,10.0,771.00,497.7
2019-10-23,16:30:00,DRY,3.90,10.93,7.7,771.00,478.8
2019-10-23,16:35:00,DRY,5.20,10.65,10.0,771.00,458.6
2019-10-23,16:40:00,DRY,3.80,10.33,9.0,771.00,438.1
2019-10-23,16:45:00,DRY,3.30,10.10,8.5,771.00,418.1
2019-10-23,16:50:00,DRY,2.90,10.53,8.3,771.00,397.3
2019-10-23,16:55:00,DRY,3.60,11.55,7.0,771.00,377.0
2019-10-23,17:00:00,DRY,3.10,12.27,6.7,771.00,356.0
2019-10-23,17:05:00,DRY,3.80,12.60,7.5,771.00,335.2
2019-10-23,17:10:00,DRY,3.83,12.60,7.3,771.00,314.2
2019-10-23,17:15:00,DRY,3.30,12.55,5.0,771.00,293.0
2019-10-23,17:20:00,DRY,2.23,12.63,6.0,771.00,271.4
2019-10-23,17:25:00,DRY,2.15,12.60,6.5,771.00,251.1
2019-10-23,17:30:00,DRY,1.60,12.30,7.7,771.00,229.5
2019-10-23,17:35:00,DRY,0.90,12.55,6.5,771.00,207.2
2019-10-23,17:40:00,DRY,2.10,12.60,7.0,771.00,187.5
2019-10-23,17:45:00,DRY,1.45,12.55,6.0,771.00,168.3
2019-10-23,17:50:00,DRY,2.43,12.63,7.3,771.00,150.1
2019-10-23,17:55:00,DRY,1.25,12.35,6.5,771.00,127.8
2019-10-23,18:00:00,DRY,2.73,12.53,6.7,771.00,103.1
2019-10-23,18:05:00,DRY,2.40,12.35,5.5,771.00,79.1
2019-10-23,18:10:00,DRY,2.63,12.50,6.7,771.00,58.7
2019-10-23,18:15:00,DRY,2.40,12.60,7.5,771.00,41.2
2019-10-23,18:20:00,DRY,1.83,12.40,6.7,771.00,28.7
2019-10-23,18:25:00,DRY,2.00,12.10,8.0,771.00,18.1
2019-10-23,18:30:00,DRY,2.37,12.27,8.7,771.00,12.6
2019-10-23,18:35:00,DRY,2.85,12.05,7.5,771.00,8.2
2019-10-23,18:40:00,DRY,1.67,12.20,8.0,771.00,6.4
2019-10-23,18:45:00,DRY,1.90,11.90,9.5,771.00,2.8
2019-10-23,18:50:00,DRY,2.80,11.80,9.3,771.00,1.8
2019-10-23,18:55:00,DRY,2.60,11.90,7.0,771.00,2.7
2019-10-23,19:00:00,DRY,1.47,11.77,8.0,771.00,1.4
2019-10-23,19:05:00,DRY,2.75,11.70,10.5,771.00,0.8
2019-10-23,19:10:00,DRY,1.67,11.97,9.7,771.00,0.4
2019-10-23,19:15:00,DRY,1.75,12.00,8.0,771.00,1.1
2019-10-23,19:20:00,DRY,2.10,11.93,8.7,771.00,1.3
2019-10-23,19:25:00,DRY,2.65,12.10,8.5,771.50,1.6
2019-10-23,19:30:00,DRY,1.97,11.83,7.3,772.00,1.2
2019-10-23,19:35:00,DRY,2.35,11.75,6.0,772.00,0.9
2019-10-23,19:40:00,DRY,1.80,11.60,5.7,772.00,1.2
2019-10-23,19:45:00,DRY,2.85,11.70,5.0,772.00,2.0
2019-10-23,19:50:00,DRY,1.90,11.83,5.3,772.00,1.2
2019-10-23,19:55:00,DRY,3.70,12.10,5.0,772.00,1.1
2019-10-23,20:00:00,DRY,3.60,12.10,6.0,772.00,1.3
2019-10-23,20:05:00,DRY,2.50,12.00,7.0,772.00,1.2
2019-10-23,20:10:00,DRY,1.77,12.07,6.7,772.00,1.4
2019-10-23,20:15:00,DRY,2.25,11.80,6.0,772.00,1.5
2019-10-23,20:20:00,DRY,2.60,11.90,5.0,772.00,1.1
2019-10-23,20:25:00,DRY,3.80,11.85,5.0,772.00,1.1
2019-10-23,20:30:00,DRY,2.27,11.70,5.0,772.00,0.8
2019-10-23,20:35:00,DRY,2.55,11.80,5.0,772.00,1.2
2019-10-23,20:40:00,DRY,2.60,11.57,5.3,772.00,0.9
2019-10-23,20:45:00,DRY,2.20,11.60,5.5,772.00,1.2
2019-10-23,20:50:00,DRY,2.67,11.60,5.0,772.00,1.4
2019-10-23,20:55:00,DRY,1.20,11.40,5.0,772.00,0.6
2019-10-23,21:00:00,DRY,2.47,11.53,5.3,772.00,2.2
2019-10-23,21:05:00,DRY,2.75,11.55,5.0,772.00,1.1
2019-10-23,21:10:00,DRY,1.97,11.63,6.0,772.00,1.3
2019-10-23,21:15:00,DRY,2.30,11.65,5.5,772.00,0.9
2019-10-23,21:20:00,DRY,1.53,11.57,5.0,772.00,1.0
2019-10-23,21:25:00,DRY,2.40,11.35,5.0,772.00,1.1
2019-10-23,21:30:00,DRY,2.13,11.40,5.3,772.00,1.7
2019-10-23,21:35:00,DRY,1.70,11.40,6.0,772.00,1.9
2019-10-23,21:40:00,DRY,1.73,11.60,5.7,772.00,1.7
2019-10-23,21:45:00,DRY,1.55,11.55,5.5,772.00,1.7
2019-10-23,21:50:00,DRY,1.33,11.63,5.7,772.00,1.4
2019-10-23,21:55:00,DRY,2.05,11.35,5.0,772.00,1.4
2019-10-23,22:00:00,DRY,2.47,11.53,5.0,772.00,0.9
2019-10-23,22:05:00,DRY,2.25,11.65,4.5,772.00,0.8
2019-10-23,22:10:00,DRY,2.43,11.53,4.3,772.00,1.2
2019-10-23,22:15:00,DRY,2.70,11.55,4.0,772.00,0.7
2019-10-23,22:20:00,DRY,2.13,11.27,4.7,772.00,1.0
2019-10-23,22:25:00,DRY,2.80,11.40,4.0,772.50,1.3
2019-10-23,22:30:00,DRY,2.90,11.37,4.7,772.00,1.0
2019-10-23,22:35:00,DRY,2.75,11.10,5.0,772.00,1.4
2019-10-23,22:40:00,DRY,3.00,11.03,5.3,772.00,1.1
2019-10-23,22:45:00,DRY,3.35,11.00,5.0,772.50,1.4
2019-10-23,22:50:00,DRY,2.30,11.03,5.0,772.67,1.0
2019-10-23,22:55:00,DRY,3.10,10.95,5.0,772.50,1.5
2019-10-23,23:00:00,DRY,2.57,11.13,4.0,772.33,1.9
2019-10-23,23:05:00,DRY,3.60,11.05,4.0,772.50,1.2
2019-10-23,23:10:00,DRY,2.63,11.07,4.0,772.67,0.8
2019-10-23,23:15:00,DRY,2.00,10.95,4.0,772.50,1.4
2019-10-23,23:20:00,DRY,3.67,11.13,4.0,772.00,1.5
2019-10-23,23:25:00,DRY,2.50,11.20,4.0,772.00,2.2
2019-10-23,23:30:00,DRY,3.10,11.10,4.0,772.00,0.9
2019-10-23,23:35:00,DRY,2.40,10.95,4.0,772.00,1.6
2019-10-23,23:40:00,DRY,3.03,10.80,4.0,772.00,1.0
2019-10-23,23:45:00,DRY,2.65,10.55,4.0,772.00,0.8
2019-10-23,23:50:00,DRY,2.13,10.60,4.0,772.00,0.9
2019-10-23,23:55:00,DRY,2.70,10.40,4.0,772.00,0.8
2019-10-24,00:00:00,DRY,2.93,10.43,4.0,772.00,1.4
2019-10-24,00:05:00,DRY,2.30,10.45,4.0,772.00,0.9
2019-10-24,00:10:00,DRY,2.77,10.43,3.7,772.00,1.2
2019-10-24,00:15:00,DRY,3.90,10.65,3.5,772.00,0.8
2019-10-24,00:20:00,DRY,2.10,10.60,3.5,772.00,1.9
2019-10-24,00:25:00,DRY,3.15,10.85,4.0,772.00,1.1
2019-10-24,00:30:00,DRY,4.33,11.00,4.0,772.00,1.6
2019-10-24,00:35:00,DRY,5.25,11.15,4.0,772.00,1.2
2019-10-24,00:40:00,DRY,3.67,10.93,4.0,772.00,1.3
2019-10-24,00:45:00,DRY,5.70,10.80,4.0,772.00,0.9
2019-10-24,00:50:00,DRY,4.33,10.50,5.0,772.00,1.1
2019-10-24,00:55:00,DRY,2.70,10.45,5.0,772.00,1.3
2019-10-24,01:00:00,DRY,3.60,10.40,5.0,772.00,1.1
2019-10-24,01:05:00,DRY,2.15,10.40,4.5,772.00,1.6
2019-10-24,01:10:00,DRY,2.07,10.67,4.3,772.00,1.4
2019-10-24,01:15:00,DRY,2.80,10.65,4.0,772.00,0.9
2019-10-24,01:20:00,DRY,4.20,10.50,4.0,772.00,0.9
2019-10-24,01:25:00,DRY,3.30,10.60,4.0,772.00,1.3
2019-10-24,01:30:00,DRY,4.43,10.50,4.0,772.00,1.1
2019-10-24,01:35:00,DRY,4.35,10.15,4.5,772.00,1.2
2019-10-24,01:40:00,DRY,3.03,10.13,4.3,772.00,1.2
2019-10-24,01:45:00,DRY,3.45,10.35,4.0,772.00,0.8
2019-10-24,01:50:00,DRY,3.70,10.37,4.3,772.00,0.9
2019-10-24,01:55:00,DRY,3.50,10.55,4.0,772.00,0.9
2019-10-24,02:00:00,DRY,2.40,10.47,4.7,772.00,1.3
2019-10-24,02:05:00,DRY,2.10,10.40,5.0,772.00,1.2
2019-10-24,02:10:00,DRY,2.30,10.60,5.0,771.33,1.3
2019-10-24,02:15:00,DRY,2.95,10.55,5.0,772.00,1.5
2019-10-24,02:20:00,DRY,3.00,10.80,6.0,771.00,1.2
2019-10-24,02:25:00,DRY,2.75,10.70,6.0,771.00,0.8
2019-10-24,02:30:00,DRY,2.60,10.47,6.0,771.00,0.6
2019-10-24,02:35:00,DRY,2.35,10.60,6.0,771.00,2.0
2019-10-24,02:40:00,DRY,4.53,10.80,6.0,771.00,1.1
2019-10-24,02:45:00,DRY,2.85,10.80,6.0,771.00,1.1
2019-10-24,02:50:00,DRY,1.43,10.77,6.7,771.00,1.5
2019-10-24,02:55:00,DRY,2.05,10.70,7.0,771.00,1.0
2019-10-24,03:00:00,DRY,2.50,10.60,8.3,771.00,1.1
2019-10-24,03:05:00,DRY,1.15,10.50,8.5,771.00,2.0
2019-10-24,03:10:00,DRY,1.97,10.47,10.3,771.00,0.7
2019-10-24,03:15:00,DRY,3.90,10.35,9.0,771.00,2.4
2019-10-24,03:20:00,DRY,3.03,10.30,10.0,771.00,1.4
2019-10-24,03:25:00,DRY,1.45,10.20,9.5,771.00,2.1
2019-10-24,03:30:00,DRY,1.00,10.43,8.7,771.00,1.8
2019-10-24,03:35:00,DRY,1.30,10.25,9.0,771.00,1.1
2019-10-24,03:40:00,DRY,2.13,9.77,10.3,771.00,1.2
2019-10-24,03:45:00,DRY,2.70,9.75,10.5,771.00,0.8
2019-10-24,03:50:00,DRY,1.43,10.00,12.0,771.00,1.8
2019-10-24,03:55:00,DRY,2.75,10.10,13.0,771.00,1.1
2019-10-24,04:00:00,DRY,1.83,10.23,11.3,771.00,1.4
2019-10-24,04:05:00,DRY,0.60,10.50,9.0,771.00,1.5
2019-10-24,04:10:00,DRY,1.47,10.53,8.3,771.00,1.2
2019-10-24,04:15:00,DRY,2.65,10.45,9.5,771.00,1.2
2019-10-24,04:20:00,DRY,1.97,10.37,10.0,771.00,1.0
2019-10-24,04:25:00,DRY,2.40,10.45,9.5,771.00,2.6
2019-10-24,04:30:00,DRY,2.33,10.57,10.3,771.00,1.5
2019-10-24,04:35:00,DRY,2.90,10.60,10.5,771.00,1.6
2019-10-24,04:40:00,DRY,1.43,10.57,12.0,771.00,1.2
2019-10-24,04:45:00,DRY,1.90,10.25,11.5,771.00,1.2
2019-10-24,04:50:00,DRY,2.83,10.47,11.0,771.00,1.2
2019-10-24,04:55:00,DRY,2.95,10.45,11.0,771.00,1.4
2019-10-24,05:00:00,DRY,2.60,10.33,11.3,771.00,1.4
2019-10-24,05:05:00,DRY,2.50,10.15,10.0,771.00,1.3
2019-10-24,05:10:00,DRY,3.27,10.07,10.7,771.00,1.4
2019-10-24,05:15:00,DRY,5.75,9.85,10.5,771.00,1.3
2019-10-24,05:20:00,DRY,1.53,9.80,10.3,771.00,1.1
2019-10-24,05:25:00,DRY,1.95,10.00,11.0,771.00,1.6
2019-10-24,05:30:00,DRY,2.87,10.13,11.7,771.00,0.7
2019-10-24,05:35:00,DRY,2.60,10.05,9.5,771.00,1.6
2019-10-24,05:40:00,DRY,2.23,10.00,9.3,771.00,1.4
2019-10-24,05:45:00,DRY,4.10,10.10,9.5,771.00,1.1
2019-10-24,05:50:00,DRY,2.23,10.13,12.0,771.00,1.5
2019-10-24,05:55:00,DRY,2.00,9.95,14.0,771.00,0.9
2019-10-24,06:00:00,DRY,3.23,10.07,13.0,771.00,0.9
2019-10-24,06:05:00,DRY,1.95,9.90,12.0,771.00,1.4
2019-10-24,06:10:00,DRY,1.73,9.77,11.3,771.00,1.3
2019-10-24,06:15:00,DRY,1.40,9.50,11.5,771.00,0.7
2019-10-24,06:20:00,DRY,1.50,9.43,12.3,771.00,1.0
2019-10-24,06:25:00,DRY,3.75,9.65,15.5,771.00,1.5
2019-10-24,06:30:00,DRY,2.53,9.63,15.0,771.00,1.7
2019-10-24,06:35:00,DRY,1.55,9.60,15.0,771.00,1.4
2019-10-24,06:40:00,DRY,1.53,9.73,13.7,771.00,0.9
2019-10-24,06:45:00,DRY,4.00,9.80,12.0,771.00,1.0
2019-10-24,06:50:00,DRY,5.53,9.73,10.7,771.00,1.1
2019-10-24,06:55:00,DRY,3.95,9.70,9.0,771.00,1.0
2019-10-24,07:00:00,DRY,3.77,9.97,10.0,771.00,2.4
2019-10-24,07:05:00,DRY,2.60,9.80,10.0,771.00,2.2
2019-10-24,07:10:00,DRY,3.33,9.77,11.0,771.00,5.1
2019-10-24,07:15:00,DRY,4.00,9.85,11.0,771.00,6.0
2019-10-24,07:20:00,DRY,3.90,9.67,12.0,771.00,8.7
2019-10-24,07:25:00,DRY,4.85,9.60,11.5,771.00,11.7
2019-10-24,07:30:00,DRY,3.53,9.90,10.0,771.00,14.7
2019-10-24,07:35:00,DRY,3.15,9.90,10.0,771.00,17.7
2019-10-24,07:40:00,DRY,5.53,10.03,9.3,771.00,19.7
2019-10-24,07:45:00,DRY,5.25,10.20,6.5,771.00,22.5
2019-10-24,07:50:00,DRY,3.27,10.37,5.0,771.00,25.1
2019-10-24,07:55:00,DRY,3.35,10.30,4.5,771.00,29.5
2019-10-24,08:00:00,DRY,3.27,10.27,5.0,771.00,97.3
2019-10-24,08:05:00,DRY,3.80,10.50,3.0,771.00,192.8
2019-10-24,08:10:00,DRY,4.07,10.63,2.7,771.00,210.3
2019-10-24,08:15:00,DRY,1.80,10.80,3.0,771.00,231.4
2019-10-24,08:20:00,DRY,3.40,10.75,3.0,771.00,249.2
2019-10-24,08:25:00,DRY,2.60,10.70,4.0,771.00,279.1
2019-10-24,08:30:00,DRY,3.03,10.73,3.7,771.00,297.0
2019-10-24,08:35:00,DRY,3.45,10.70,4.0,771.50,317.4
2019-10-24,08:40:00,DRY,4.10,10.70,4.3,771.33,339.3
2019-10-24,08:45:00,DRY,3.80,10.70,4.5,772.00,360.1
2019-10-24,08:50:00,DRY,3.43,10.70,5.0,772.00,382.0
2019-10-24,08:55:00,DRY,2.05,10.65,5.0,772.00,402.0
2019-10-24,09:00:00,DRY,3.50,10.73,5.3,771.67,421.8
2019-10-24,09:05:00,DRY,2.50,10.65,5.5,772.00,441.4
2019-10-24,09:10:00,DRY,3.77,10.57,6.0,771.67,461.7
2019-10-24,09:15:00,DRY,5.45,10.55,6.5,772.00,480.7
2019-10-24,09:20:00,DRY,4.87,10.33,9.0,771.67,499.4
2019-10-24,09:25:00,DRY,3.15,10.20,8.5,772.00,517.8
2019-10-24,09:30:00,DRY,3.93,10.47,8.0,772.00,536.7
2019-10-24,09:35:00,DRY,5.45,10.50,9.5,772.00,553.5
2019-10-24,09:40:00,DRY,4.57,10.37,9.7,772.00,571.5
2019-10-24,09:45:00,DRY,4.10,10.50,9.5,772.00,588.5
2019-10-24,09:50:00,DRY,3.90,10.70,10.3,772.00,605.3
2019-10-24,09:55:00,DRY,2.50,10.90,10.0,772.00,620.5
2019-10-24,10:00:00,DRY,3.93,10.90,10.0,772.00,637.5
2019-10-24,10:05:00,DRY,3.60,11.00,9.5,772.00,654.0
2019-10-24,10:10:00,DRY,2.97,11.37,10.7,772.00,668.5
2019-10-24,10:15:00,DRY,4.10,11.35,12.0,772.00,685.1
2019-10-24,10:20:00,DRY,2.90,11.37,11.3,772.00,699.5
2019-10-24,10:25:00,DRY,4.60,11.25,11.5,772.00,712.4
2019-10-24,10:30:00,DRY,2.57,11.40,11.7,772.00,726.1
2019-10-24,10:35:00,DRY,3.10,11.45,11.5,772.00,739.6
2019-10-24,10:40:00,DRY,3.90,11.53,9.7,772.00,752.3
2019-10-24,10:45:00,DRY,2.05,11.55,9.5,772.00,766.5
2019-10-24,10:50:00,DRY,4.83,11.90,9.0,772.00,776.0
2019-10-24,10:55:00,DRY,4.10,11.85,11.5,772.00,788.3
2019-10-24,11:00:00,DRY,3.63,11.70,13.0,772.00,799.2
2019-10-24,11:05:00,DRY,3.20,11.75,10.0,772.00,809.1
2019-10-24,11:10:00,DRY,2.67,11.77,11.3,772.00,819.7
2019-10-24,11:15:00,DRY,2.60,12.00,11.5,772.00,829.3
2019-10-24,11:20:00,DRY,4.53,11.87,9.7,772.00,839.4
2019-10-24,11:25:00,DRY,2.80,11.80,12.0,772.00,847.5
2019-10-24,11:30:00,DRY,3.50,11.80,11.7,772.00,858.1
2019-10-24,11:35:00,DRY,3.50,11.70,15.0,772.00,846.7
2019-10-24,11:40:00,DRY,5.77,11.20,22.3,772.00,874.2
2019-10-24,11:45:00,DRY,6.45,11.15,21.5,772.00,853.0
2019-10-24,11:50:00,DRY,5.50,11.53,15.3,772.00,868.2
2019-10-24,11:55:00,DRY,5.30,11.65,16.0,772.00,839.3
2019-10-24,12:00:00,DRY,3.87,11.70,19.3,772.00,882.6
2019-10-24,12:05:00,DRY,3.55,11.75,19.0,772.00,904.3
2019-10-24,12:10:00,DRY,4.97,11.63,18.7,772.00,905.6
2019-10-24,12:15:00,DRY,4.60,11.65,22.5,772.00,912.8
2019-10-24,12:20:00,DRY,6.40,11.63,23.3,772.00,909.4
2019-10-24,12:25:00,DRY,3.50,11.65,20.0,771.50,899.1
2019-10-24,12:30:00,DRY,4.97,11.73,21.0,772.00,919.4
2019-10-24,12:35:00,DRY,3.50,11.70,23.5,772.00,924.5
2019-10-24,12:40:00,DRY,6.80,11.93,17.3,771.33,926.3
2019-10-24,12:45:00,DRY,5.50,12.75,12.5,771.00,931.3
2019-10-24,12:50:00,DRY,5.73,12.87,11.3,771.33,930.2
2019-10-24,12:55:00,DRY,5.50,13.00,10.5,771.50,919.2
2019-10-24,13:00:00,DRY,6.20,12.57,13.7,771.00,928.1
2019-10-24,13:05:00,DRY,6.30,12.65,19.5,771.00,888.5
2019-10-24,13:10:00,DRY,5.90,12.37,15.3,771.00,804.3
2019-10-24,13:15:00,DRY,6.95,12.05,18.5,771.00,755.7
2019-10-24,13:20:00,DRY,5.70,12.40,14.3,771.00,765.0
2019-10-24,13:25:00,DRY,5.50,12.40,18.5,771.00,805.0
2019-10-24,13:30:00,DRY,6.00,12.40,19.0,771.00,770.9
2019-10-24,13:35:00,DRY,7.30,11.90,20.0,771.00,695.4
2019-10-24,13:40:00,DRY,5.63,12.40,16.0,771.00,834.5
2019-10-24,13:45:00,DRY,6.85,12.90,12.5,771.00,869.8
2019-10-24,13:50:00,DRY,5.43,12.70,20.3,771.00,903.4
2019-10-24,13:55:00,DRY,5.90,12.75,19.5,771.00,900.8
2019-10-24,14:00:00,DRY,6.73,13.20,16.0,771.00,912.3
2019-10-24,14:05:00,DRY,5.35,13.10,15.5,771.00,890.2
2019-10-24,14:10:00,DRY,5.93,13.37,11.7,771.00,875.8
2019-10-24,14:15:00,DRY,6.30,13.55,13.0,771.00,861.4
2019-10-24,14:20:00,DRY,6.43,13.23,16.3,771.00,856.3
2019-10-24,14:25:00,DRY,5.00,12.85,17.0,771.00,848.1
2019-10-24,14:30:00,DRY,7.63,13.27,13.0,771.00,841.5
2019-10-24,14:35:00,DRY,7.60,13.40,10.0,771.00,835.1
2019-10-24,14:40:00,DRY,7.50,13.17,11.3,771.00,826.3
2019-10-24,14:45:00,DRY,6.65,12.85,14.5,771.00,790.7
2019-10-24,14:50:00,DRY,8.33,13.47,10.7,771.00,738.8
2019-10-24,14:55:00,DRY,6.50,13.70,8.5,771.00,769.0
2019-10-24,15:00:00,DRY,6.43,13.47,9.0,770.67,793.7
2019-10-24,15:05:00,DRY,5.55,13.30,12.0,771.00,790.7
2019-10-24,15:10:00,DRY,6.87,12.97,14.0,770.67,654.2
2019-10-24,15:15:00,DRY,7.80,12.90,13.0,770.00,565.8
2019-10-24,15:20:00,DRY,8.13,13.17,10.0,770.00,629.9
2019-10-24,15:25:00,DRY,8.25,13.50,10.0,770.00,686.3
2019-10-24,15:30:00,DRY,6.13,13.17,12.3,770.33,596.6
2019-10-24,15:35:00,DRY,5.70,12.90,12.5,771.00,660.9
2019-10-24,15:40:00,DRY,6.97,13.50,13.0,770.33,677.4
2019-10-24,15:45:00,DRY,8.30,13.50,12.5,771.00,659.0
2019-10-24,15:50:00,DRY,6.87,13.47,12.3,770.00,654.2
2019-10-24,15:55:00,DRY,8.90,13.45,11.5,770.50,636.2
2019-10-24,16:00:00,DRY,6.67,13.30,12.3,770.67,619.7
2019-10-24,16:05:00,DRY,5.55,13.25,14.0,771.00,527.7
2019-10-24,16:10:00,DRY,7.33,13.23,11.3,770.33,451.2
2019-10-24,16:15:00,DRY,6.20,13.20,10.0,770.00,397.5
2019-10-24,16:20:00,DRY,7.03,13.20,10.7,770.33,319.8
2019-10-24,16:25:00,DRY,5.65,12.95,11.5,770.50,296.4
2019-10-24,16:30:00,DRY,6.30,12.87,12.3,771.00,247.8
2019-10-24,16:35:00,DRY,7.60,12.80,13.0,771.00,315.3
2019-10-24,16:40:00,DRY,6.27,12.50,15.7,770.33,388.7
2019-10-24,16:45:00,DRY,7.50,12.65,16.5,770.50,425.9
2019-10-24,16:50:00,DRY,8.60,12.50,16.3,770.33,494.6
2019-10-24,16:55:00,DRY,5.65,12.65,15.5,771.00,444.2
2019-10-24,17:00:00,DRY,7.63,13.00,12.7,770.00,425.3
2019-10-24,17:05:00,DRY,5.60,13.20,12.0,770.00,384.1
2019-10-24,17:10:00,DRY,7.00,12.93,12.3,770.67,350.9
2019-10-24,17:15:00,DRY,8.80,12.65,15.0,770.50,315.5
2019-10-24,17:20:00,DRY,8.30,12.70,14.7,770.00,304.4
2019-10-24,17:25:00,DRY,8.90,13.20,11.0,770.00,274.8
2019-10-24,17:30:00,DRY,6.67,13.03,12.0,771.00,245.4
2019-10-24,17:35:00,DRY,8.40,13.10,10.5,770.00,216.4
2019-10-24,17:40:00,DRY,7.57,12.90,11.3,770.00,190.0
2019-10-24,17:45:00,DRY,7.20,12.60,14.0,770.50,168.7
2019-10-24,17:50:00,DRY,7.13,12.73,11.7,771.00,145.5
2019-10-24,17:55:00,DRY,8.15,12.75,10.5,771.00,93.4
2019-10-24,18:00:00,DRY,9.07,12.37,10.7,770.33,60.3
2019-10-24,18:05:00,DRY,7.75,12.45,9.5,771.00,69.3
2019-10-24,18:10:00,DRY,7.30,12.70,9.7,771.00,58.9